Temp
51 44 43 47 49 48 46 40 40 39 46 44 43 44 48 52 50 50 52 53 55 59 63 62 63 64 63 63 64 65 65 66 66 64 63 64 62 63 65 66 66 66 65 64
45 42 46 52 49 48 45 43 42 46 49 48 44 44 50 52 53 56 55 57 59 60 59 62 62 61 61 65 64 65 66 67 66 67 66 67 66 66 67 66 66 66 65 64
42 44 49 47 43 42 43 41 43 43 45 44 43 44 48 55 55 58 59 59 61 61 63 64 63 63 60 61 64 64 66 67 67 68 67 65 62 60 61 63 64 65 65 64
43 49 46 43 42 43 39 44 44 42 41 35 42 34 45 47 47 51 54 56 58 58 61 64 63 61 59 60 61 63 65 66 67 67 66 64 64 62 65 66 65 65 63 64
40 42 44 41 44 45 42 45 42 41 38 39 41 35 37 41 46 51 52 54 52 57 59 57 58 60 60 59 58 61 62 63 64 64 66 64 63 65 66 63 63 63 63 63
41 45 45 45 46 47 45 42 40 41 40 32 39 38 40 44 47 46 49 51 50 50 50 52 54 55 55 55 54 55 57 59 61 61 63 64 62 63 62 61 61 62 62 62
41 42 45 45 43 46 45 39 32 30 30 29 37 36 41 49 48 50 50 47 48 49 50 52 52 52 53 53 53 55 55 56 57 59 60 61 63 62 62 62 62 62 61 61
35 31 42 46 45 42 40 43 34 25 26 27 32 31 39 49 54 56 52 52 49 48 50 51 51 51 51 52 52 52 53 53 54 55 56 57 59 62 63 63 64 63 63 63
34 34 40 43 45 46 39 37 44 32 25 26 31 34 43 46 45 44 47 48 48 49 50 49 50 50 51 52 52 52 53 53 54 55 55 54 55 56 59 62 63 63 64 64
37 27 37 41 44 45 44 45 34 34 27 25 28 29 36 40 42 43 44 46 46 48 48 48 49 48 50 50 51 52 52 51 51 53 53 54 53 54 55 57 58 60 62 63
38 35 32 41 39 39 39 35 36 37 33 27 22 29 39 43 44 44 46 46 47 46 45 46 46 47 48 49 48 50 50 49 49 50 51 52 52 53 54 55 56 57 58 60
41 34 25 35 39 41 42 39 37 31 31 32 31 33 42 42 42 46 45 46 47 46 44 44 44 45 45 46 46 47 48 47 47 48 49 49 50 50 50 51 53 54 55 57
41 36 28 29 37 39 36 39 40 36 33 30 29 33 46 44 43 45 45 44 46 44 43 42 42 42 42 43 44 44 45 44 44 45 45 45 45 46 47 48 49 50 51 52
47 34 31 29 30 36 33 36 38 35 31 29 33 33 40 40 41 43 44 43 42 42 43 41 40 40 40 41 42 43 42 43 42 42 42 42 42 42 43 44 45 46 46 47
42 30 31 32 33 34 35 35 37 34 37 31 33 33 39 39 41 43 45 44 41 40 40 40 38 38 38 38 40 41 40 40 40 39 39 39 40 40 39 39 40 41 42 44
42 31 32 26 33 33 34 37 37 38 37 33 34 34 42 43 43 40 41 39 38 37 38 37 36 36 36 36 37 37 36 36 37 37 36 37 36 35 35 35 35 37 38 40
39 33 31 29 33 31 26 32 37 39 40 37 32 38 41 40 39 37 36 36 34 34 34 33 33 33 33 34 35 32 32 34 33 33 34 32 33 32 30 31 31 32 35 37
38 33 30 16 29 22 33 35 39 38 36 35 37 35 40 37 33 33 35 33 31 31 31 30 30 30 32 33 30 31 30 29 29 30 29 29 28 26 28 28 29 30 32 33
41 32 26 20 15 25 31 34 33 34 33 31 32 32 32 31 30 27 31 31 28 28 29 28 29 29 29 27 28 26 26 26 27 24 24 24 24 24 24 24 25 27 32 34
38 40 31 13 18 14 29 35 34 39 28 29 30 28 30 32 29 23 27 28 26 27 26 25 25 25 23 23 23 23 22 23 21 21 21 22 22 21 20 22 25 29 29 30
31 30 28 14 13 19 31 29 33 24 29 26 25 25 26 27 24 24 25 24 25 25 24 24 22 19 20 21 21 19 19 19 19 20 19 19 19 18 20 21 21 22 24 28
29 27 24 19 17 17 23 28 30 26 25 25 22 23 22 23 23 22 21 21 21 20 20 20 17 17 18 19 18 17 17 18 18 16 15 14 15 17 19 17 19 21 21 21
25 30 24 28 26 22 22 22 24 26 23 22 21 21 21 20 18 18 17 18 18 17 17 17 15 15 16 15 16 14 14 15 14 11 10 12 14 15 16 15 15 16 18 18
28 30 26 25 21 19 19 19 20 22 20 20 20 19 19 16 16 14 15 15 14 15 14 14 12 11 11 12 13 12 12 12 9 9 11 12 13 13 14 16 17 15 15 16
26 30 22 19 18 18 19 20 18 18 18 16 17 16 15 16 12 12 12 12 12 12 12 12 10 10 9 10 9 9 10 9 8 9 10 11 12 12 13 16 16 18 20 21
19 23 26 24 22 21 20 20 20 17 15 15 14 12 13 14 12 11 10 10 10 9 9 8 8 7 7 6 6 7 7 8 6 7 8 10 12 13 14 14 15 22 24 27
MSLP
1019.52 1019.81 1018.59 1019.24 1019.42 1019.80 1019.89 1020.03 1020.08 1020.14 1020.09 1019.89 1019.49 1018.66 1018.34 1017.95 1017.63 1017.24 1016.88 1016.44 1015.91 1015.29 1014.45 1013.95 1013.62 1013.61 1013.69 1013.71 1013.85 1013.92 1014.49 1014.37 1015.05 1015.48 1015.94 1016.29 1015.85 1016.27 1016.75 1016.43 1016.54 1016.78 1017.07 1017.56
1019.56 1018.08 1019.13 1019.33 1019.58 1019.93 1020.00 1020.24 1020.28 1020.63 1020.46 1020.31 1019.84 1018.02 1017.74 1017.82 1016.96 1016.55 1016.07 1015.44 1014.71 1014.17 1013.74 1013.22 1012.85 1012.93 1012.96 1012.90 1012.87 1013.10 1013.20 1013.49 1013.95 1014.40 1014.48 1014.80 1015.29 1015.32 1015.23 1015.72 1015.78 1015.78 1016.16 1016.63
1018.68 1018.26 1018.69 1019.29 1019.79 1020.09 1020.02 1020.08 1020.50 1020.86 1020.79 1020.61 1020.38 1018.09 1017.11 1016.02 1015.83 1015.32 1014.85 1014.36 1013.40 1012.85 1012.38 1012.25 1012.28 1012.06 1012.11 1012.27 1012.33 1012.47 1012.42 1012.56 1012.91 1013.16 1013.89 1014.41 1014.79 1015.09 1015.19 1014.87 1014.83 1014.93 1015.30 1015.66
1019.01 1018.35 1018.70 1019.31 1019.37 1019.72 1019.91 1020.08 1020.54 1020.89 1021.27 1020.80 1020.39 1017.29 1016.30 1015.87 1015.34 1014.85 1014.14 1013.58 1012.74 1012.50 1012.09 1011.79 1011.70 1011.76 1011.72 1011.73 1011.88 1011.93 1012.03 1012.34 1012.48 1012.82 1013.23 1013.59 1013.71 1014.08 1013.89 1013.87 1014.30 1014.52 1014.69 1014.85
1018.12 1018.14 1018.46 1018.96 1018.05 1019.56 1019.48 1019.89 1020.45 1020.86 1020.98 1020.95 1019.90 1019.34 1015.19 1015.67 1014.50 1013.86 1013.65 1012.97 1012.66 1012.15 1011.61 1011.50 1011.59 1011.59 1011.43 1011.55 1011.52 1011.33 1011.42 1011.80 1012.02 1012.50 1012.82 1013.05 1013.40 1013.36 1013.39 1013.84 1013.87 1013.96 1014.05 1014.14
1018.14 1018.11 1018.06 1017.83 1018.31 1019.00 1019.50 1020.12 1020.51 1020.66 1020.82 1020.00 1017.36 1019.20 1015.06 1014.63 1014.02 1013.35 1013.15 1013.12 1012.76 1012.29 1011.63 1011.79 1011.86 1012.00 1012.38 1012.10 1012.04 1011.94 1011.84 1012.13 1012.12 1012.28 1012.53 1012.67 1012.78 1012.96 1013.13 1013.31 1013.38 1013.30 1013.37 1013.45
1018.18 1018.07 1018.00 1018.09 1018.36 1018.75 1019.33 1019.95 1020.22 1020.17 1019.78 1018.48 1017.51 1018.33 1014.65 1012.52 1013.15 1013.36 1013.46 1013.22 1013.19 1012.91 1012.48 1012.15 1012.50 1012.76 1013.01 1013.05 1012.79 1012.44 1012.45 1012.70 1012.82 1012.99 1013.06 1013.06 1012.58 1012.63 1012.68 1012.72 1012.73 1012.81 1012.88 1012.92
1017.56 1017.87 1017.79 1017.84 1017.74 1017.96 1018.46 1018.89 1018.78 1018.69 1019.18 1018.70 1017.93 1016.82 1013.60 1012.48 1012.10 1012.39 1012.89 1013.19 1013.50 1013.41 1013.20 1013.38 1013.54 1013.63 1013.84 1013.89 1013.86 1013.72 1013.50 1013.52 1013.10 1013.13 1013.53 1013.49 1013.36 1012.96 1012.61 1012.42 1012.29 1012.17 1012.18 1012.03
1017.02 1017.35 1017.17 1017.08 1017.37 1017.74 1017.85 1017.89 1017.97 1018.66 1019.66 1019.29 1017.81 1015.97 1013.94 1012.61 1012.60 1012.66 1012.87 1013.34 1013.96 1014.17 1014.27 1014.48 1014.43 1014.35 1014.49 1014.33 1014.42 1014.67 1014.77 1014.54 1014.26 1013.81 1013.71 1013.64 1013.45 1013.36 1013.07 1012.53 1012.14 1011.87 1011.61 1011.45
1016.38 1017.45 1017.30 1017.23 1017.52 1017.34 1017.20 1017.92 1018.47 1018.21 1018.36 1017.95 1017.05 1016.04 1013.45 1012.93 1012.97 1013.04 1013.69 1014.06 1014.71 1014.86 1015.06 1015.21 1015.35 1015.42 1015.44 1015.33 1015.25 1015.22 1015.36 1015.54 1015.19 1014.78 1014.53 1014.04 1014.04 1013.83 1013.16 1012.76 1012.52 1012.19 1011.66 1011.20
1016.05 1016.69 1017.82 1017.60 1017.11 1016.90 1017.49 1017.79 1017.78 1017.59 1017.11 1017.24 1017.20 1015.26 1014.21 1013.69 1013.03 1013.18 1013.93 1014.47 1015.13 1015.54 1015.85 1016.38 1016.47 1016.43 1016.39 1016.33 1016.19 1016.18 1016.06 1016.26 1015.92 1015.61 1015.13 1015.13 1014.72 1013.95 1013.54 1013.36 1012.93 1012.55 1011.95 1011.33
1015.33 1016.73 1017.60 1017.02 1016.74 1016.78 1016.91 1016.97 1017.32 1017.32 1016.83 1017.11 1016.93 1015.34 1014.67 1014.06 1013.95 1014.05 1014.92 1016.17 1016.73 1016.89 1017.20 1017.66 1017.70 1017.68 1017.55 1017.70 1017.54 1017.46 1017.28 1016.98 1016.89 1016.41 1015.98 1015.54 1015.30 1014.84 1014.13 1013.74 1013.58 1013.04 1012.35 1011.66
1014.66 1015.87 1016.94 1017.19 1017.13 1016.88 1016.65 1016.50 1016.34 1016.87 1017.37 1017.11 1016.86 1016.00 1015.38 1015.57 1016.35 1015.84 1016.72 1018.02 1018.84 1019.29 1019.06 1019.17 1019.07 1018.86 1018.61 1018.69 1018.70 1018.59 1018.35 1018.06 1017.71 1016.94 1016.72 1016.24 1015.78 1015.35 1015.03 1014.52 1013.97 1013.34 1012.69 1011.99
1013.98 1014.94 1015.26 1015.07 1014.90 1014.95 1015.94 1015.88 1016.22 1016.52 1016.71 1016.30 1016.13 1015.99 1016.03 1016.04 1017.27 1017.62 1017.43 1018.88 1019.63 1020.10 1020.54 1020.45 1020.29 1020.50 1020.58 1020.14 1019.70 1019.48 1019.29 1019.00 1018.52 1018.05 1017.50 1016.94 1016.48 1016.15 1015.97 1015.33 1014.70 1013.99 1013.24 1012.36
1013.44 1014.30 1015.20 1015.28 1015.05 1014.98 1014.93 1015.04 1015.59 1015.78 1015.23 1015.83 1015.35 1015.74 1015.94 1016.17 1016.69 1018.11 1018.19 1018.98 1019.95 1020.50 1020.91 1021.44 1021.63 1021.70 1021.78 1021.17 1020.77 1020.51 1020.41 1020.21 1019.67 1018.82 1018.12 1017.52 1017.28 1016.92 1016.34 1015.77 1014.99 1014.28 1013.64 1012.90
1013.42 1014.15 1015.21 1015.76 1015.71 1015.51 1015.35 1015.04 1015.00 1015.15 1015.51 1015.75 1015.82 1015.80 1015.59 1015.82 1016.60 1018.06 1018.79 1019.69 1020.77 1021.30 1022.22 1022.82 1022.35 1022.87 1023.01 1022.40 1021.64 1021.70 1021.60 1021.08 1020.49 1019.70 1019.15 1018.68 1018.26 1017.57 1016.92 1016.31 1015.31 1014.45 1013.51 1012.69
1012.83 1014.06 1015.61 1016.20 1016.12 1016.18 1015.71 1013.68 1014.37 1014.70 1015.12 1015.35 1015.74 1015.21 1015.87 1017.11 1018.41 1019.17 1019.98 1020.94 1022.08 1022.81 1023.56 1023.55 1023.84 1023.55 1023.35 1023.64 1023.09 1022.69 1021.80 1021.45 1020.94 1020.51 1019.95 1019.57 1018.78 1018.20 1017.66 1016.83 1015.71 1014.85 1013.85 1012.73
1012.60 1014.27 1015.88 1016.84 1017.04 1016.21 1013.62 1013.10 1013.08 1014.13 1014.99 1015.56 1015.85 1016.40 1016.38 1017.98 1019.77 1020.71 1022.12 1022.90 1023.91 1024.21 1024.28 1024.27 1024.89 1024.10 1024.05 1024.37 1023.85 1023.06 1022.40 1022.01 1021.60 1021.30 1020.98 1020.16 1019.82 1019.03 1018.30 1017.41 1016.50 1015.21 1014.05 1013.04
1012.24 1013.71 1015.95 1016.93 1017.26 1015.80 1014.10 1013.38 1013.68 1014.23 1015.37 1016.34 1016.96 1018.04 1018.80 1019.86 1020.77 1023.14 1024.01 1024.55 1024.67 1025.07 1025.43 1025.88 1025.66 1025.23 1025.39 1025.08 1024.86 1024.45 1023.12 1022.41 1022.05 1022.11 1021.66 1021.17 1020.49 1019.33 1018.56 1017.63 1016.54 1015.44 1013.94 1012.81
1012.45 1013.08 1015.08 1017.28 1017.55 1016.24 1014.30 1013.73 1013.75 1014.25 1016.15 1017.22 1017.98 1019.18 1020.00 1020.99 1022.45 1024.08 1024.90 1025.03 1025.55 1026.06 1026.46 1026.62 1026.44 1026.31 1026.00 1025.06 1024.24 1023.36 1023.04 1022.79 1022.41 1022.47 1022.07 1021.58 1020.73 1019.68 1018.84 1017.99 1016.72 1015.42 1014.31 1012.90
1012.44 1013.71 1015.02 1017.02 1017.61 1016.54 1015.02 1015.13 1015.20 1016.77 1017.38 1018.14 1019.50 1020.63 1021.25 1022.01 1023.18 1024.33 1025.18 1025.71 1026.14 1026.44 1026.57 1026.46 1026.21 1025.77 1025.53 1025.15 1024.78 1024.34 1024.09 1023.64 1023.52 1023.36 1022.54 1021.89 1021.33 1020.19 1019.19 1017.94 1017.00 1015.72 1014.10 1012.74
1012.04 1013.60 1015.10 1017.01 1018.00 1017.18 1016.48 1016.76 1017.28 1017.77 1018.97 1019.74 1021.18 1021.99 1022.56 1023.34 1024.20 1025.06 1025.83 1026.20 1026.49 1026.74 1026.83 1026.95 1027.00 1026.85 1026.59 1026.20 1025.67 1025.30 1025.05 1024.90 1024.77 1023.92 1023.04 1022.38 1021.53 1020.39 1019.36 1018.39 1017.10 1015.91 1014.62 1013.02
1012.65 1011.99 1013.59 1015.40 1016.34 1017.07 1017.99 1018.39 1018.94 1019.08 1019.82 1021.35 1022.15 1023.13 1023.70 1024.35 1025.08 1025.80 1026.51 1026.96 1027.29 1027.43 1027.53 1027.62 1027.54 1027.33 1027.14 1027.03 1026.70 1026.38 1026.00 1025.54 1024.41 1023.70 1023.06 1022.21 1021.44 1020.52 1019.58 1018.37 1016.97 1015.82 1014.58 1013.14
1012.74 1012.55 1013.97 1016.00 1017.40 1018.34 1019.43 1020.36 1020.86 1021.06 1021.72 1022.73 1023.52 1024.27 1024.93 1025.65 1026.38 1026.90 1027.22 1027.46 1027.77 1027.91 1028.06 1028.20 1028.02 1027.76 1027.64 1027.52 1027.25 1026.80 1026.21 1025.66 1025.09 1024.41 1023.42 1022.29 1021.25 1019.92 1019.14 1018.56 1017.43 1015.78 1014.61 1013.31
1013.18 1013.68 1015.40 1017.36 1018.86 1020.08 1020.76 1021.16 1022.05 1022.95 1023.62 1024.26 1025.02 1025.59 1026.15 1026.60 1027.37 1027.89 1028.14 1028.36 1028.46 1028.46 1028.38 1028.22 1028.15 1028.27 1028.10 1027.70 1027.17 1026.77 1026.38 1025.77 1024.75 1023.93 1023.24 1022.26 1021.33 1020.25 1019.30 1018.38 1017.36 1015.91 1014.51 1013.59
1014.62 1015.12 1016.22 1016.53 1016.54 1017.82 1019.27 1021.39 1022.72 1023.74 1024.62 1025.17 1025.78 1026.67 1027.39 1027.71 1028.24 1028.65 1028.94 1029.17 1029.15 1029.10 1029.13 1029.22 1029.42 1029.16 1028.74 1028.09 1027.45 1026.87 1026.53 1025.85 1025.20 1024.44 1023.52 1022.64 1021.83 1020.49 1019.53 1018.05 1016.51 1015.68 1014.26 1013.06
Wind_Speed
4 6 16 10 4 2 2 3 5 1 0 2 5 11 13 10 9 11 12 11 11 16 14 9 9 11 11 11 13 15 12 15 10 8 8 9 10 8 8 9 11 12 11 12
5 22 4 5 5 7 6 8 7 1 1 1 6 20 15 12 18 17 16 17 19 16 12 12 11 9 10 15 15 14 16 14 12 10 10 9 7 8 9 8 10 12 12 12
13 0 13 10 5 11 13 17 10 7 2 4 3 21 22 17 16 19 16 17 20 21 21 16 12 11 8 11 13 13 15 15 14 17 8 5 1 1 3 8 9 11 12 13
11 8 8 5 13 10 15 7 7 8 4 10 7 17 15 10 10 10 12 15 17 16 17 15 11 9 8 9 8 9 11 12 13 12 11 13 12 12 12 11 7 8 11 13
6 10 14 10 17 9 10 8 11 7 6 3 14 9 5 3 19 18 13 12 10 16 13 9 8 8 7 5 7 9 10 8 9 9 12 10 11 10 7 5 8 8 8 12
3 1 7 10 6 14 3 5 2 3 5 11 27 10 20 15 17 6 4 7 8 6 2 4 6 8 6 7 7 3 3 4 3 5 9 12 12 12 8 7 7 8 7 7
7 9 3 1 6 5 8 6 4 7 8 10 5 10 24 20 8 12 8 2 4 5 6 8 10 9 8 9 9 9 9 8 6 5 5 7 10 11 12 10 9 10 7 7
15 8 14 7 8 7 14 17 8 9 5 4 1 11 15 14 18 18 9 7 4 4 6 8 8 8 8 8 9 9 8 8 8 8 7 6 7 6 7 9 9 9 9 9
11 9 1 3 6 11 5 15 14 3 2 1 5 8 11 9 8 1 9 7 6 5 6 9 9 10 11 13 13 13 13 13 13 10 8 7 6 6 8 11 9 8 10 9
7 2 3 2 3 5 8 4 9 6 10 8 6 7 10 5 5 6 7 8 5 5 8 9 11 12 11 12 11 13 12 13 11 12 10 8 8 8 7 6 9 11 10 9
6 4 2 3 9 10 6 6 5 4 6 5 2 7 4 9 8 14 10 8 7 8 10 10 10 11 11 12 12 12 14 14 14 13 12 12 10 10 10 9 9 9 11 11
7 5 4 8 2 3 2 9 8 2 1 1 1 6 10 9 2 4 6 4 7 12 11 10 10 11 12 12 11 12 12 13 13 11 11 12 12 13 12 12 12 12 11 11
12 6 4 3 2 3 5 5 5 5 3 7 3 3 8 17 18 16 16 16 14 12 13 11 12 14 13 13 12 12 13 13 12 12 12 11 12 13 14 14 14 14 13 13
14 5 10 13 6 6 8 10 11 6 4 6 6 3 1 6 11 10 12 9 8 11 12 12 13 11 12 11 11 11 13 14 14 13 12 12 12 12 12 12 13 14 14 13
12 8 4 1 1 3 4 9 16 17 16 8 7 12 14 6 5 2 2 6 9 10 11 12 12 12 13 13 12 11 13 14 14 13 14 14 14 13 12 13 14 14 13 12
4 3 4 2 3 4 6 11 13 18 8 5 6 6 7 8 8 9 9 8 8 10 10 11 12 14 13 14 13 14 15 15 13 12 13 12 14 13 14 16 17 16 15 13
14 8 5 6 4 2 7 15 15 14 12 10 12 9 8 7 9 9 11 11 10 9 9 11 13 12 12 13 11 14 14 14 13 13 11 13 12 14 17 16 16 16 17 16
12 8 2 4 4 10 5 2 11 16 7 4 3 3 5 16 14 14 11 9 8 8 10 11 11 12 11 12 14 14 13 12 13 11 14 13 15 15 15 16 16 16 15 15
10 6 4 6 5 5 5 6 9 12 10 3 6 7 14 17 15 10 7 7 7 8 8 8 9 11 11 12 13 12 10 11 10 14 15 16 16 17 17 17 17 16 16 16
5 6 5 3 6 10 6 4 4 5 8 6 7 6 13 13 9 5 4 6 7 6 6 8 9 8 9 11 14 15 15 14 16 17 17 16 16 16 17 17 17 17 17 18
8 5 12 4 4 8 4 2 3 7 6 7 6 4 4 6 3 6 6 6 6 7 9 9 11 11 12 14 15 15 15 15 17 17 18 18 17 17 17 17 15 16 16 18
9 9 4 4 3 10 2 1 9 6 7 10 7 4 8 8 6 6 6 6 8 9 10 11 10 10 10 13 14 15 15 17 16 16 16 16 16 14 14 17 15 16 16 16
4 7 8 7 6 4 4 4 3 4 10 6 7 6 6 6 4 5 4 5 7 8 8 9 9 10 10 12 13 13 15 16 16 16 16 16 16 14 14 16 16 13 13 13
4 2 4 5 3 6 8 7 5 8 11 10 9 7 5 5 3 2 2 4 5 6 7 7 7 9 10 11 11 11 14 14 14 15 15 15 15 17 15 13 12 12 12 13
3 7 7 4 5 6 4 6 11 12 11 11 8 7 6 4 3 1 1 3 4 5 7 8 9 9 10 11 11 10 12 12 13 13 14 14 13 15 15 13 13 13 12 15
2 6 7 6 9 4 7 13 13 13 11 9 11 9 6 5 4 2 2 3 4 5 7 7 6 7 8 8 9 10 11 11 12 11 11 11 12 13 13 13 13 20 26 30
Wind_Direction
191 203 220 206 205 255 42 257 234 83 292 347 272 280 278 287 284 276 277 277 269 266 269 257 238 233 226 220 215 217 208 216 200 195 207 221 219 205 227 221 213 209 207 205
182 231 154 192 188 221 228 257 253 274 275 222 309 289 286 280 277 271 265 265 260 263 252 257 250 228 219 232 226 217 215 209 203 207 213 214 209 224 213 217 220 213 206 206
214 206 165 181 182 215 231 235 242 254 213 269 9 278 281 273 248 266 263 257 257 251 255 249 251 243 226 223 225 221 218 211 204 210 211 205 216 236 204 220 221 220 210 208
222 209 158 170 221 188 238 174 183 202 192 254 149 280 274 293 269 257 270 261 260 255 256 256 245 253 233 237 233 224 222 221 220 207 202 205 212 223 228 229 227 222 208 216
209 165 183 200 216 169 244 164 197 208 231 318 239 253 285 314 285 278 260 271 272 260 249 248 249 257 265 287 244 216 207 206 210 195 213 211 225 236 238 229 232 221 210 214
204 260 167 208 184 184 121 97 132 177 222 239 249 216 273 259 251 271 265 314 322 319 75 89 62 54 30 23 20 7 351 304 278 211 212 219 223 231 235 228 227 232 221 211
179 210 165 227 175 155 174 150 235 230 202 242 245 192 242 263 252 248 263 342 324 10 63 68 61 48 34 26 20 28 38 44 15 335 292 255 240 237 236 233 230 238 228 222
210 213 196 179 211 178 198 202 213 231 220 237 52 213 245 238 263 240 227 178 294 81 69 66 61 58 47 38 33 28 40 34 36 37 7 340 307 282 264 251 250 247 239 236
195 223 118 193 174 174 169 223 230 267 93 174 219 276 293 252 268 269 185 149 183 108 74 63 46 50 48 46 42 39 31 30 22 25 18 3 352 333 312 300 283 261 253 246
177 107 206 167 114 250 204 352 211 202 220 226 241 263 245 331 245 171 157 158 165 103 67 54 54 47 44 42 40 39 37 30 19 16 12 14 357 345 342 332 322 310 294 269
137 102 222 189 202 194 175 207 255 243 189 175 224 253 252 272 197 177 170 148 145 78 65 59 48 41 41 37 33 34 32 22 18 11 8 6 4 6 4 357 345 334 321 310
163 138 183 203 118 132 278 206 184 244 186 222 219 261 348 339 294 114 111 73 46 66 63 53 44 42 40 32 27 27 23 19 9 4 5 7 2 1 3 358 348 342 334 323
161 195 176 312 263 187 218 196 160 116 117 218 253 251 20 41 35 56 68 44 37 34 44 43 35 32 27 21 15 16 13 10 1 0 359 1 4 0 355 348 344 342 339 330
154 167 198 212 201 143 198 196 191 175 190 174 213 221 8 23 36 32 69 93 79 53 31 30 28 24 18 12 10 11 7 2 355 353 354 356 357 353 343 339 338 335 332 327
169 200 182 294 310 152 184 178 194 206 221 195 197 188 190 191 138 136 174 69 68 58 45 29 21 11 5 3 2 9 2 353 346 347 350 350 345 342 340 339 336 329 323 317
180 184 125 230 185 191 234 229 215 221 226 254 166 250 211 188 157 152 133 107 77 54 37 18 23 9 356 353 353 2 346 343 340 343 341 342 337 340 344 336 332 327 322 319
173 140 169 215 152 141 290 214 202 213 217 206 202 217 146 156 140 106 95 82 57 42 24 19 2 1 357 345 360 340 340 337 340 333 337 338 334 343 333 328 327 325 321 317
173 138 151 167 136 226 240 164 183 191 197 200 113 53 129 127 101 83 61 80 60 27 15 9 353 354 350 346 343 337 342 338 334 337 345 341 341 329 326 324 320 317 316 315
165 134 138 151 205 305 280 187 153 177 219 208 136 104 113 117 98 73 70 65 55 24 14 352 356 349 346 343 337 326 334 340 343 349 339 340 333 328 326 322 318 312 312 310
136 171 135 148 171 211 233 136 34 100 257 168 140 138 158 166 186 140 82 59 36 21 5 0 349 338 337 342 347 347 350 349 354 344 339 333 330 326 320 314 315 315 313 305
163 166 197 157 213 285 241 3 325 128 232 126 107 125 150 158 68 101 63 42 27 18 3 0 1 356 351 348 350 348 346 352 341 336 334 331 327 322 316 314 313 307 307 305
166 151 172 115 162 261 70 116 178 121 87 120 114 100 89 92 85 60 42 21 15 6 2 4 357 354 355 356 352 350 349 341 334 332 327 324 323 322 318 315 313 312 310 303
213 181 172 182 200 73 41 74 48 124 133 131 121 111 103 94 54 31 12 14 6 6 2 1 357 356 2 360 359 350 345 339 339 335 331 327 324 321 321 317 315 313 314 309
252 165 116 111 147 131 116 82 70 98 113 115 113 117 114 129 120 68 347 23 5 5 359 351 357 6 360 354 352 352 344 341 335 329 328 326 328 329 328 320 314 317 316 310
183 129 132 75 111 107 179 138 133 118 115 116 108 114 121 135 115 97 45 20 9 3 3 6 8 355 348 342 341 340 338 334 335 338 332 335 331 328 321 317 316 312 309 304
208 158 176 204 166 132 138 149 148 140 134 130 134 128 108 127 130 131 95 37 23 15 2 358 336 333 328 326 333 342 338 338 340 328 334 334 326 330 326 321 319 325 325 324